www.pogodaiklimat.ru

Погода и климат >> Архив погоды >> Россия >> город Санкт-Петербург >> Ломоносов


ПОГОДА в Ломоносове

  • Прогноз погоды в Ломоносове
  • Монитор погоды в Ломоносове

АРХИВ ПОГОДЫ в Ломоносове

Время (UTC), дата Ветер
(напр.,м/с)
 
Видим.   Явления Облачность Т
(С)
Тd
(С)
f
(%)
Тe
(С)
Тes
(С)
Комфортность P
(гПа)
Po
(гПа)
Тmin
(С)
Tmax
(С)
R
(мм)
R24
(мм)
S
(см)
18 13.07 штиль 0 20 км 10/3 300 м
[Cb calv Ac trans Ci fib]
+14.5 +9.0 70 +14 +14 1009.0 1008.5 +15.7
21 13.07 С 3 20 км 10/8 300 м
[Cb calv Ac trans Ci fib]
+14.1 +10.1 77 +13 +13 1009.6 1009.1
00 14.07 штиль 0 20 км 4/3
[Cu hum Ac trans Ci fib]
+11.8 +9.2 84 +11 +11 1010.3 1009.8
03 14.07 штиль 0 10 км 3/3 300 м
[Sc Ci fib]
+11.4 +9.0 85 +11 +12 1010.5 1010.0 +11.2
06 14.07 С 1 20 км 4/3 600 м
[Cu hum Ci fib]
+14.2 +8.7 69 +15 +20 1010.3 1009.8 +11.2
09 14.07 СВ 2 20 км 6/4 600 м
[Cb calv Ci fib]
+14.5 +7.7 64 +14 +22 1011.1 1010.6
12 14.07 СЗ 2 20 км 4/3 600 м
[Cb calv Ci fib]
+15.6 +8.3 62 +16 +23 1010.9 1010.4
15 14.07 СВ 2 20 км 8/4 600 м
[Cb calv Ac trans Ci fib]
+16.7 +9.9 64 +17 +19 1011.0 1010.5
18 14.07 СВ 1 20 км 8/8 600 м
[Cu Sc]
+15.3 +8.6 64 +16 +16 1011.1 1010.6 +17.3
21 14.07 штиль 0 20 км 6/4 600 м
[Sc Ac trans Ci fib]
+12.9 +10.8 87 +12 +12 1011.5 1011.0
00 15.07 штиль 0 20 км 8/4 600 м
[Cb calv Ac trans Ci fib]
+10.4 +9.0 91 +10 +10 1011.5 1011.0
03 15.07 ЮЗ 1 10 км 8/6 600 м
[Sc Ac trans Ci fib]
+11.1 +8.5 84 +11 +11 1011.1 1010.6 +10.2
06 15.07 штиль 0 20 км 9/1 600 м
[Cu hum Ac trans Ci fib]
+16.4 +11.0 70 +16 +21 1011.2 1010.8 +10.2
09 15.07 ЮЗ 2 10 км гроза, ливневой дождь 10/10 300 м
[Cb calv]
+13.8 +8.9 72 +13 +13 1011.6 1011.1
12 15.07 С 1 20 км {гроза, ливн. осадки} 9/6 600 м
[Cb calv Ac trans Ci fib]
+17.7 +5.3 44 +19 +22 1010.8 1010.4
15 15.07 СЗ 1 20 км 8/4 600 м
[Cu Sc Ac trans Ci fib]
+17.4 +8.2 55 +18 +20 1010.8 1010.4 1
18 15.07 штиль 0 20 км {ливн. осадки} 6/3 600 м
[Cu Sc Ac trans Ci fib]
+17.5 +9.7 60 +18 +18 1010.4 1010.0 +18.0 1
21 15.07 штиль 0 20 км 3/0
[Ac trans]
+13.8 +10.2 79 +13 +13 1010.5 1010.0
00 16.07 штиль 0 20 км 3/3 600 м
[Sc diur, vesp]
+11.6 +9.8 89 +11 +11 1010.5 1010.0
03 16.07 Ю 1 10 км 3/3 600 м
[Sc diur, vesp]
+12.8 +10.5 86 +13 +13 1010.4 1009.9 +11.0 0.0
06 16.07 ЮВ 1 20 км 4/0
[Ac trans Ci fib]
+17.0 +12.7 76 +18 +24 1009.4 1009.0 +11.0
09 16.07 В 1 20 км 3/3 600 м
[Cu hum]
+18.1 +11.3 64 +19 +30 1009.6 1009.2
12 16.07 В 1 20 км 3/3 600 м
[Cu med, cong]
+19.7 +11.2 58 +22 +32 комфорт 1009.7 1009.3
15 16.07 В 1 20 км 3/3 600 м
[Cu med, cong]
+20.7 +11.5 56 +24 +27 комфорт 1009.3 1008.9
18 16.07 В 2 20 км 5/4 600 м
[Cu Sc Ac trans]
+19.1 +12.5 66 +21 +21 комфорт 1009.6 1009.2 +21.0
21 16.07 В 1 20 км 8/8 600 м
[Sc]
+18.5 +12.2 67 +20 +20 1009.6 1009.2
00 17.07 В 1 20 км 4/0
[Ac As Ci fib]
+16.8 +13.2 79 +18 +18 1009.4 1009.0
03 17.07 штиль 0 20 км 8/0
[Ac As]
+16.0 +16.1 100 +16 +16 1009.4 1009.0
06 17.07 В 3 20 км 9/0
[Ac lent]
+16.7 +12.9 78 +16 +18 1009.2 1008.8 +16.0
09 17.07 В 4 10 км слаб. ливневой дождь 10/5 300 м
[Cb calv As op]
+17.2 +12.9 76 +17 +18 1009.2 1008.8
12 17.07 В 5 20 км в посл. час ливневой дождь 10/4 300 м
[Cb calv As trans Ci fib]
+18.1 +12.8 71 +18 +20 1009.1 1008.7
15 17.07 СВ 4 10 км в посл. час ливневой дождь 10/5 300 м
[Cb calv Ac As Cs]
+16.7 +13.1 79 +16 +17 1009.0 1008.6 0.4
18 17.07 СВ 5 20 км {ливн. осадки} 10/6 300 м
[Cb calv Ac trans Cs]
+16.8 +14.5 86 +16 +16 1009.0 1008.6 +18.3 0.4
21 17.07 СВ 3 20 км 10/3 300 м
[Sc Ac trans Cs]
+16.3 +14.9 91 +16 +16 1008.6 1008.2
00 18.07 СВ 4 10 км 10/10 420 м
[St]
+16.7 +15.7 94 +16 +16 1008.2 1008.0
03 18.07 С 4 10 км 10/10 300 м
[St]
+16.5 +15.5 94 +16 +16 1007.9 1007.5
06 18.07 С 4 10 км 10/6 300 м
[Sc As op]
+16.9 +15.4 91 +16 +17 1007.5 1007.1 +16.1
09 18.07 С 4 20 км 9/5 300 м
[Cb calv Ac trans]
+17.7 +15.1 85 +17 +20 1007.2 1006.8
12 18.07 СВ 5
{10}
10 км слаб. ливневой дождь 10/8 300 м
[Cb calv Ac As]
+17.4 +16.1 92 +17 +17 1007.0 1006.6
15 18.07 С 4
{10}
2000 м дождь {ливн. осадки} 10/10 200 м
[Frnb Ns]
+16.3 +15.8 97 +16 +16 1006.4 1006.0 4
18 18.07 С 3 2000 м дождь {ливн. осадки} 10/10 200 м
[Frnb Ns]
+15.9 +15.6 98 +15 +15 1005.5 1005.1 +18.3 11
21 18.07 С 4
{11}
20 км {дождь} 10/0
[Ac As]
+16.3 +15.4 94 +16 +16 1005.4 1005.0
00 19.07 С 4
{10}
20 км {дождь} 10/8 300 м
[Frnb Ac As]
+16.0 +15.3 96 +15 +15 1005.4 1005.0
03 19.07 С 3 4000 м слаб. дождь 10/0 200 м
[As op]
+16.1 +15.4 96 +16 +16 1005.2 1004.8 +15.9 10
06 19.07 С 1 10 км в посл. час дождь 10/10 300 м
[Sc]
+16.0 +15.3 96 +17 +17 1005.5 1005.1 +15.6 4
09 19.07 СЗ 1 4000 м слаб. ливневой дождь 10/10 300 м
[Cb calv]
+15.7 +15.2 97 +16 +16 1005.6 1005.1
12 19.07 С 1 20 км в посл. час ливневой дождь 10/0
[As op]
+16.7 +15.7 94 +18 +20 1005.7 1005.3
15 19.07 С 1 20 км 10/10 300 м
[Sc]
+17.2 +15.8 91 +18 +18 1006.4 1006.0 8
18 19.07 ЮЗ 1 4000 м слаб. морось 10/10 300 м
[St]
+16.4 +15.7 96 +17 +17 1006.9 1006.5 +17.4 8
21 19.07 слаб. ливневой дождь н/о +15.5 1007.4 1007.0
00 20.07 СЗ 2 10 км {ливн. осадки, дождь} 10/10 600 м
[Sc]
+16.0 +15.3 96 +16 +16 1007.6 1007.2
03 20.07 СЗ 1 4000 м дождь 10/0 300 м
[As op]
+15.6 +15.3 98 +16 +16 1008.5 1008.0 +15.5 14
06 20.07 З 1 20 км {дождь} 10/8 600 м
[Sc Ac trans]
+17.0 +16.0 94 +18 +19 1009.6 1009.2 +15.5 15
09 20.07 СЗ 1 20 км 10/10 300 м
[Sc]
+17.9 +15.7 87 +19 +19 1011.5 1011.1
12 20.07 СЗ 3 20 км 4/3 300 м
[Cu Sc Ac trans]
+19.1 +15.6 80 +21 +27 комфорт 1012.1 1011.7 -2.3

 

Местоположение метеостанции Ломоносов (город Санкт-Петербург, Россия): широта 59.92 долгота 29.78 высота над уровнем моря 4 м.

В архиве по умолчанию представлена погода в Ломоносове за последнюю неделю. Архивные данные за месяц целиком и за предыдущие месяцы, начиная с января 2011 года, Вы можете получить, выбрав интересующий диапазон дат из раскрывающегося списка и нажав кнопку "Ввод!".


*Определитесь, кто Вы:
робот инопланетянин человек

Внимание! Время в таблицах - всемирное. Для получения местного времени необходимо прибавить поправку, которая равна 3 ч.

Смотрите также архив погоды в соседних городах и на ближайших метеорологических станциях:

Погода в Кронштадте (город Санкт-Петербург, Россия) (7 км)
Погода в Лисьем Носу (город Санкт-Петербург, Россия) (16 км)
Погода в Шепелево (Ленинградская область, Россия) (29 км)
Погода в Санкт-Петербурге (город Санкт-Петербург, Россия) (29 км)
Погода в Сосновом Бору (Ленинградская область, Россия) (36 км)
Погода в Рощино (Ленинградская область, Россия) (38 км)
Погода в Воейково (город Санкт-Петербург, Россия) (51 км)
Погода в Озерках (Ленинградская область, Россия) (53 км)
Погода в Волосово (Ленинградская область, Россия) (57 км)
Погода в Белогорке (Ленинградская область, Россия) (66 км)

Пояснения к столбцам:

Ветер - указаны скорость ветра в м/с - средняя за 10 мин, порывы в срок и между сроками (в фигурных скобках) и направление, откуда дует ветер: С - северный, СВ - северо-восточный, В - восточный, ЮВ - юго-восточный, Ю - южный, ЮЗ - юго-западный, З - западный, СЗ - северо-западный.
Видимость - горизонтальная дальность видимости в метрах или километрах. При видимости от 1 до 10 км при отсутствии осадков обычно наблюдается дымка, при ухудшении видимости до 1 км и менее - туман. В сухую погоду видимость может ухудшаться дымом, пылью или мглою.
Явления - указаны атмосферные явления, наблюдавшиеся в срок или в последний час перед сроком; фигурными скобками обозначены явления, наблюдавшиеся между сроками (за 1-3 часа до срока); квадратными скобками обозначены град или гололедные отложения с указанием их диаметра в мм.
Облачность - указаны через наклонную черту общая и нижняя облачность в баллах и высота нижней границы облаков в метрах; квадратными скобками обозначены формы облаков: Ci - перистые, Cs - перисто-слоистые, Cc - перисто-кучевые, Ac - высококучевые, As - высокослоистые, Sc - слоисто-кучевые, Ns - слоисто-дождевые, Cu - кучевые, Cb - кучево-дождевые. Подробнее классификацию облаков см. в Атласе облаков (PDF).
T - Температура воздуха - температура, измеренная на высоте 2 м над землей.
Td - Температура точки росы - температура, при понижении до которой содержащийся в воздухе водяной пар достигнет насыщения.
f - Относительная влажность воздуха - влажноcть воздуха, измеренная на высоте 2 м над землей.
Te - Эффективная температура - температура, которую ощущает одетый по сезону человек в тени. Характеристика душности погоды. При расчете учитывается влияние влажности воздуха и скорости ветра на теплоощущения человека.
Tes - Эффективная температура на солнце - температура, которую ощущает человек, с поправкой на солнечный нагрев. Характеристика знойности погоды. Зависит от высоты солнца над горизонтом, облачности и скорости ветра. Ночью, в пасмурную погоду, а также при ветре 12 м/с и более поправка равна нулю.
P - Атмосферное давление - приведенное к уровню моря атмосферное давление.
Po - Атмосферное давление - измеренное на уровне метеостанции атмосферное давление.
Tmin - Минимальная температура - минимум температуры воздуха на высоте 2 м над землей.
Tmax - Максимальная температура - максимум температуры воздуха на высоте 2 м над землей.
R - Количество осадков - Количество выпавших осадков за период времени, мм. При наведении курсора мыши на число - период времени, за который выпало указанное количество осадков.
R24 - Количество осадков - Количество выпавших осадков за 24 часа, мм.
S - Снежный покров - Высота снежного покрова, см. При наведении курсора мыши на число - состояние снежного покрова и степень покрытия местности в баллах.